Flag for Germany Weather past 2 weeks in Zwickau, Saxony, Germany

Now
64 °F

Sunny.


Feels Like: 64 °F
Forecast: 48 / 67 °F
Wind: 9 mph from Southwest

Location: Altenburg Nobitz

Current Time: May 28, 2015 at 10:26:02 PM

Latest Report: May 28, 2015 at 7:50 PM


Visibility: 10 mi

Pressure: 29.89 "Hg

Humidity: 46%

Dew point: 43 °F

Location of ZwickauLocation

Historic Weather in Zwickau — Graph

°F

Zwickau temperature yesterday

Maximum temperature yesterday: 54 °F (at 1:20 PM)
Minimum temperature yesterday: 48 °F (at 8:20 AM)
Average temperature yesterday: 51 °F

Past Weeks' High & Low Weather Summary

 TemperatureHumidityPressure
High72 °F (May 18, 2:50 PM)88% (May 24, 8:50 AM)30.27 "Hg (May 24, 8:50 AM)
Low46 °F (May 14, 8:50 AM)35% (May 18, 1:50 PM)29.68 "Hg (May 18, 7:20 PM)
Average60 °F54%30.01 "Hg
* Reported May 14 8:50 AM — May 28 7:50 PM, Zwickau, Weather by CustomWeather, © 2015

Note: Actual official high and low records may vary slightly from our data, if they occured in-between our weather recording intervals... More about our weather records

Advertising

Zwickau weather history for previous 24 hours

 ConditionsComfort  
Time TempWeatherWind HumidityBarometerVisibility
7:50 PM
Thu, May 28
64 °FSunny.9 mph46%29.89 "Hg10 mi
7:20 PM64 °FSunny.8 mph46%29.89 "Hg10 mi
6:50 PM66 °FSunny.8 mph46%29.89 "Hg10 mi
6:20 PM66 °FSunny.12 mph43%29.92 "Hg10 mi
5:50 PM66 °FPassing clouds.12 mph43%29.92 "HgN/A
5:20 PM68 °FSunny.12 mph38%29.92 "Hg10 mi
4:50 PM68 °FPassing clouds.12 mph43%29.92 "HgN/A
4:20 PM70 °FPassing clouds.14 mph38%29.92 "HgN/A
3:50 PM68 °FSunny.12 mph38%29.95 "Hg10 mi
3:20 PM68 °FPassing clouds.12 mph38%29.95 "HgN/A
2:50 PM68 °FPassing clouds.14 mph38%29.95 "HgN/A
2:20 PM66 °FSunny.13 mph40%29.98 "Hg10 mi
1:50 PM66 °FPassing clouds.10 mph40%29.98 "HgN/A
1:20 PM64 °FSunny.12 mph43%29.98 "Hg10 mi
12:50 PM63 °FPassing clouds.10 mph45%30.01 "HgN/A
12:20 PM63 °FSunny.13 mph42%30.01 "Hg10 mi
11:50 AM63 °FSunny.12 mph42%30.01 "Hg10 mi
11:20 AM59 °FSunny.10 mph51%30.04 "Hg10 mi
10:50 AM61 °FSunny.10 mph52%30.04 "Hg10 mi
10:20 AM59 °FSunny.13 mph51%30.04 "Hg10 mi
9:50 AM57 °FSunny.10 mph55%30.07 "Hg10 mi
9:20 AM55 °FSunny.12 mph55%30.07 "Hg10 mi
8:50 AM55 °FSunny.9 mph59%30.07 "Hg10 mi
8:20 AM54 °FPassing clouds.10 mph63%30.07 "HgN/A
7:50 AM52 °FPassing clouds.9 mph67%30.07 "HgN/A
Weather by CustomWeather, © 2015

See weather overviewHow to use our weather pages